www.pogodaiklimat.ru

Погода и климат >> Архив погоды >> Перу >> Pucallpa


ПОГОДА в Pucallpa

  • Прогноз погоды в Pucallpa
  • Монитор погоды в Pucallpa
  • Климат города

АРХИВ ПОГОДЫ в Pucallpa

Время (UTC), дата Ветер
(напр.,м/с)
 
Видим.   Явления Облачность Т
(С)
Тd
(С)
f
(%)
Тe
(С)
Тes
(С)
Комфортность P
(гПа)
Po
(гПа)
Тmin
(С)
Tmax
(С)
R
(мм)
R24
(мм)
S
(см)
00 14.02 С 3 10 км 10/6 450 м
[Sc As op]
+27.8 +23.6 78 +38 +38 очень
душно
1008.7 991.1 +31.4
03 14.02 В 4 10 км 10/5 500 м
[Sc Ac trans]
+26.8 +23.2 81 +36 +36 очень
душно
1011.8 994.1
06 14.02 СВ 3 10 км 10/5 500 м
[Sc Ac trans]
+25.4 +22.9 86 +34 +34 очень
душно
1011.8 994.0
09 14.02 штиль 0 10 км 10/5 450 м
[Sc Ac trans]
+22.7 +19 +19 1011.1 993.3
12 14.02 ЮВ 2 8000 м {морось} 10/5 360 м
[Sc As op]
+24.4 +23.0 92 +32 +33 очень
душно
1012.8 994.9 +23.5 2
15 14.02 ЮВ 2 10 км 10/6 450 м
[Sc As op]
+23.2 +19 +21 1014.4 996.5
18 14.02 ЮВ 3 8000 м слабая морось 10/8 400 м
[Sc As op]
+24.6 +23.8 95 +33 +34 очень
душно
1013.0 995.2 1
21 14.02 Ю 4 10 км {дождь} 10/6 450 м
[Sc As op]
+24.8 +23.2 91 +33 +33 очень
душно
1010.2 992.4
00 15.02 СВ 3 10 км {дождь} 10/6 450 м
[Sc As op]
+25.0 +23.6 92 +34 +34 очень
душно
1011.0 993.2 +25.8 14
03 15.02 ЮЗ 2 10 км 10/5 600 м
[Sc As op]
+24.0 +23.2 95 +32 +32 очень
душно
1013.1 995.2
06 15.02 нст 1 10 км 8/4 450 м
[Sc As op]
+24.2 +23.1 94 +32 +32 очень
душно
1012.2 994.3
09 15.02 З 2 10 км 10/4 450 м
[Sc As op]
+24.0 +23.2 95 +32 +32 очень
душно
1010.8 993.0
12 15.02 ЮВ 2 10 км 10/8 360 м
[Sc As op]
+24.0 +23.2 95 +32 +32 очень
душно
1012.9 995.0 +23.4 15
15 15.02 З 2 6000 м морось {дождь} 10/8 360 м
[Sc As op]
+23.4 +22.4 94 +32 +33 очень
душно
1014.7 996.7
18 15.02 ЮЗ 2 8000 м морось 10/8 600 м
[Sc As op]
+24.0 +22.6 92 +31 +32 очень
душно
1013.0 995.1 12
21 15.02 Ю 2 10 км 10/8 500 м
[Sc As op]
+25.4 +22.9 86 +34 +34 очень
душно
1010.2 992.4
00 16.02 С 3 8000 м {морось} 10/8 360 м
[Sc As op]
+22.4 +21.0 92 +29 +29 очень
душно
1011.7 993.7 +26.0 1
03 16.02 С 2 10 км 10/8 360 м
[Sc As op]
+22.6 +21.8 95 +30 +30 очень
душно
1013.9 995.9
06 16.02 С 2 10 км 10/8 360 м
[Sc As op]
+22.8 +22.0 95 +31 +31 очень
душно
1013.0 995.1
09 16.02 С 2 10 км 10/8 360 м
[Sc As op]
+22.8 +22.2 96 +31 +31 очень
душно
1012.6 994.7
12 16.02 штиль 0 8000 м 10/8 360 м
[Sc As op]
+23.2 +22.6 96 +32 +32 очень
душно
1014.4 996.4 +22.2 13
15 16.02 СВ 3 7000 м слабая морось 10/8 360 м
[Sc As op]
+23.2 +22.9 98 +32 +33 очень
душно
1016.7 998.7
18 16.02 СВ 2 4000 м слабый дождь 10/8 240 м
[Frnb As op]
+23.8 +23.2 96 +32 +32 очень
душно
1015.2 997.3 5
21 16.02 СЗ 2 4000 м слабый дождь 10/8 240 м
[Frnb As op]
+23.0 +22.3 96 +31 +32 очень
душно
1012.6 994.7
00 17.02 ЮВ 1 10 км {дождь} 10/8 450 м
[Sc As op]
+23.2 +22.6 96 +32 +32 очень
душно
1012.4 994.5 +24.0 6
03 17.02 нст 1 3000 м дымка 8/8 300 м
[St]
+22.4 +22.1 98 +30 +30 очень
душно
1013.6 995.6
06 17.02 нст 1 500 м туман 10/10 150 м
[St]
+22.0 +22.0 100 +29 +29 очень
душно
1012.3 994.3
09 17.02 штиль 0 8000 м дымка {туман} 10/5 400 м
[Sc As op]
+22.4 +22.1 98 +30 +30 очень
душно
1011.3 993.3
12 17.02 нст 1 8000 м дымка {туман} 10/8 360 м
[Sc As op]
+22.8 +22.5 98 +31 +31 очень
душно
1012.6 994.7 +22.2 11
15 17.02 штиль 0 10 км 10/8 450 м
[Sc As op]
+26.2 +22.6 81 +35 +36 очень
душно
1014.0 996.2
18 17.02 нст 1 10 км 10/8 600 м
[Sc As op]
+28.6 +22.8 71 +38 +39 очень
душно
1012.5 994.9
21 17.02 СЗ 2 10 км 5/5 660 м
[Cu med, cong]
+29.8 +23.2 68 +40 +43 очень
душно
1007.8 990.4
00 18.02 штиль 0 10 км ясно +27.6 +22.6 74 +36 +36 очень
душно
1008.6 991.0 +30.2
03 18.02 штиль 0 10 км ясно +25.2 +24.0 93 +35 +35 очень
душно
1011.2 993.4
06 18.02 ЮЗ 1 10 км 3/3 600 м
[Sc]
+24.2 +23.6 96 +33 +33 очень
душно
1004.2 992.4
09 18.02 штиль 0 10 км 4/4 600 м
[Sc]
+23.8 +23.6 99 +32 +32 очень
душно
1008.9 991.1
12 18.02 В 1 10 км 4/4 600 м
[Sc]
+24.6 +23.6 94 +33 +35 очень
душно
1010.3 992.5 +23.8
15 18.02 СЗ 4 10 км 3/3 750 м
[Sc]
+29.0 +22.7 69 +38 +47 очень
душно
1011.1 993.5
18 18.02 С 4 10 км 9/5 750 м
[Sc As op]
+30.8 +22.8 62 +40 +43 очень
душно
1008.1 990.7
21 18.02 С 5 10 км 4/4 900 м
[Sc]
+32.0 +22.7 58 +42 +44 опасность
перегрева
1004.3 987.0
00 19.02 С 2 10 км 4/4 600 м
[Sc]
+29.0 +23.8 74 +40 +40 очень
душно
1005.6 988.1 +32.4
03 19.02 С 3 10 км 5/5 600 м
[Sc]
+26.6 +23.0 81 +36 +36 очень
душно
1008.0 990.4
06 19.02 С 4 10 км 10/5 540 м
[Sc Ac trans]
+25.2 +23.0 88 +34 +34 очень
душно
1007.7 990.0
09 19.02 С 2 10 км 10/5 450 м
[Sc Ac trans]
+24.0 +22.6 92 +31 +31 очень
душно
989.4
12 19.02 С 5 10 км 8/3 540 м
[Sc Ac trans]
+24.8 +23.1 90 +33 +33 очень
душно
1008.7 991.0 +23.8
18 19.02 СЗ 3 10 км 10/4 600 м
[Sc As op]
+29.2 +23.2 70 +39 +41 очень
душно
1008.5 991.0
21 19.02 СЗ 3 10 км 10/4 600 м
[Sc As op]
+30.0 +23.2 67 +40 +41 очень
душно
1005.5 988.1
00 20.02 ЮЗ 2 10 км гроза без осадков 10/6 600 м
[Sc As op]
+26.2 +22.6 81 +35 +35 очень
душно
1006.9 989.2 +30.6
03 20.02 нст 1 8000 м слабый дождь {гроза} 10/8 360 м
[Sc As op]
+24.0 +23.2 95 +32 +32 очень
душно
1010.0 992.2
06 20.02 нст 1 10 км {дождь, гроза} 9/5 450 м
[Sc As op]
+23.6 +23.0 96 +31 +31 очень
душно
1008.6 990.8 5
09 20.02 нст 1 10 км {дождь} 8/4 450 м
[Sc As op]
+23.4 +22.8 96 +33 +33 очень
душно
1008.0 990.1
12 20.02 В 2 10 км 10/4 600 м
[Sc As op]
+24.2 +23.1 94 +32 +32 очень
душно
1009.6 991.8 +23.4 8
15 20.02 СЗ 3 10 км 10/6 600 м
[Sc As op]
+25.6 +22.6 84 +34 +35 очень
душно
1011.9 994.2
18 20.02 нст 2 10 км 10/5 600 м
[Sc As op]
+27.8 +21.8 70 +36 +38 очень
душно
1010.2 992.6

 

Местоположение метеостанции Pucallpa (Перу): широта -8.37 долгота -74.56 высота над уровнем моря 149 м.

В архиве по умолчанию представлена погода в Pucallpa за последнюю неделю. Архивные данные за месяц целиком и за предыдущие месяцы, начиная с января 2011 года, Вы можете получить, выбрав интересующий диапазон дат из раскрывающегося списка и нажав кнопку "Ввод!".

Внимание! Время в таблицах - всемирное. Для получения местного времени необходимо прибавить поправку, которая в Pucallpa равна -5 ч.

Смотрите также архив погоды в соседних городах и на ближайших метеорологических станциях:

Погода в Tingo Maria (Перу) (188 км)
Погода в Porto Walter (Бразилия) (200 км)
Погода в Marechal Thaumaturgo (Бразилия) (205 км)
Погода в Cruzeiro do Sul (Бразилия) (225 км)
Погода в Huanuco (Перу) (246 км)
Погода в Juanjui (Перу) (272 км)
Погода в Tarapoto (Перу) (288 км)
Погода в Yurimaguas (Перу) (326 км)
Погода в Anta (Перу) (351 км)
Погода в Tarauaca (Бразилия) (419 км)

Пояснения к столбцам:

Ветер - указаны скорость ветра в м/с - средняя за 10 мин, порывы в срок и между сроками (в фигурных скобках) и направление, откуда дует ветер: С - северный, СВ - северо-восточный, В - восточный, ЮВ - юго-восточный, Ю - южный, ЮЗ - юго-западный, З - западный, СЗ - северо-западный.
Видимость - горизонтальная дальность видимости в метрах или километрах. При видимости от 1 до 10 км при отсутствии осадков обычно наблюдается дымка, при ухудшении видимости до 1 км и менее - туман. В сухую погоду видимость может ухудшаться дымом, пылью или мглою.
Явления - указаны атмосферные явления, наблюдавшиеся в срок или в последний час перед сроком; фигурными скобками обозначены явления, наблюдавшиеся между сроками (за 1-3 часа до срока); квадратными скобками обозначены град или гололедные отложения с указанием их диаметра в мм.
Облачность - указаны через наклонную черту общая и нижняя облачность в баллах и высота нижней границы облаков в метрах; квадратными скобками обозначены формы облаков: Ci - перистые, Cs - перисто-слоистые, Cc - перисто-кучевые, Ac - высококучевые, As - высокослоистые, Sc - слоисто-кучевые, Ns - слоисто-дождевые, Cu - кучевые, Cb - кучево-дождевые. Подробнее классификацию облаков см. в Атласе облаков (PDF).
T - Температура воздуха - температура, измеренная на высоте 2 м над землей.
Td - Температура точки росы - температура, при понижении до которой содержащийся в воздухе водяной пар достигнет насыщения.
f - Относительная влажность воздуха - влажноcть воздуха, измеренная на высоте 2 м над землей.
Te - Эффективная температура - температура, которую ощущает одетый по сезону человек в тени. Характеристика душности погоды. При расчете учитывается влияние влажности воздуха и скорости ветра на теплоощущения человека.
Tes - Эффективная температура на солнце - температура, которую ощущает человек, с поправкой на солнечный нагрев. Характеристика знойности погоды. Зависит от высоты солнца над горизонтом, облачности и скорости ветра. Ночью, в пасмурную погоду, а также при ветре 12 м/с и более поправка равна нулю.
P - Атмосферное давление - приведенное к уровню моря атмосферное давление.
Po - Атмосферное давление - измеренное на уровне метеостанции атмосферное давление.
Tmin - Минимальная температура - минимум температуры воздуха на высоте 2 м над землей.
Tmax - Максимальная температура - максимум температуры воздуха на высоте 2 м над землей.
R - Количество осадков - Количество выпавших осадков за период времени, мм. При наведении курсора мыши на число - период времени, за который выпало указанное количество осадков.
R24 - Количество осадков - Количество выпавших осадков за 24 часа, мм.
S - Снежный покров - Высота снежного покрова, см. При наведении курсора мыши на число - состояние снежного покрова и степень покрытия местности в баллах.